TimeEDT,TemperatureF,Dew PointF,Humidity,Sea Level PressureIn,VisibilityMPH,Wind Direction,Wind SpeedMPH,Gust SpeedMPH,PrecipitationIn,Events,Conditions,WindDirDegrees,DateUTC
12:15 AM,35.6,6.8,30,30.12,10.0,NW,17.3,23.0,N/A,,Clear,320,2012-03-27 04:15:00
12:35 AM,33.8,5.0,30,30.14,10.0,NW,11.5,20.7,N/A,,Clear,320,2012-03-27 04:35:00
12:55 AM,33.8,5.0,30,30.14,10.0,NW,15.0,-,N/A,,Clear,310,2012-03-27 04:55:00
1:15 AM,33.8,3.2,28,30.14,10.0,NNW,13.8,-,N/A,,Clear,330,2012-03-27 05:15:00
1:35 AM,33.8,3.2,28,30.14,10.0,NW,16.1,21.9,N/A,,Clear,320,2012-03-27 05:35:00
1:55 AM,33.8,3.2,28,30.14,10.0,NW,10.4,-,N/A,,Clear,310,2012-03-27 05:55:00
2:15 AM,33.8,3.2,28,30.15,10.0,NW,11.5,-,N/A,,Clear,320,2012-03-27 06:15:00
2:35 AM,32.0,5.0,32,30.15,10.0,NW,9.2,-,N/A,,Clear,320,2012-03-27 06:35:00
2:55 AM,32.0,5.0,32,30.15,10.0,NW,11.5,18.4,N/A,,Clear,320,2012-03-27 06:55:00
3:15 AM,32.0,3.2,30,30.16,10.0,NW,11.5,-,N/A,,Clear,320,2012-03-27 07:15:00
3:35 AM,32.0,5.0,32,30.16,10.0,NW,9.2,-,N/A,,Clear,310,2012-03-27 07:35:00
3:55 AM,32.0,3.2,30,30.16,10.0,NW,13.8,-,N/A,,Clear,310,2012-03-27 07:55:00
4:15 AM,30.2,3.2,32,30.17,10.0,WNW,8.1,-,N/A,,Clear,300,2012-03-27 08:15:00
4:35 AM,30.2,3.2,32,30.17,10.0,NW,5.8,-,N/A,,Clear,310,2012-03-27 08:35:00
4:55 AM,30.2,3.2,32,30.17,10.0,WNW,5.8,-,N/A,,Clear,300,2012-03-27 08:55:00
5:15 AM,30.2,3.2,32,30.18,10.0,WNW,8.1,-,N/A,,Clear,300,2012-03-27 09:15:00
5:35 AM,30.2,3.2,32,30.19,10.0,NW,9.2,-,N/A,,Clear,310,2012-03-27 09:35:00
5:55 AM,30.2,3.2,32,30.20,10.0,NW,15.0,23.0,N/A,,Clear,310,2012-03-27 09:55:00
6:15 AM,30.2,1.4,29,30.20,10.0,NW,5.8,-,N/A,,Clear,310,2012-03-27 10:15:00
6:35 AM,28.4,3.2,34,30.21,10.0,NW,10.4,-,N/A,,Clear,310,2012-03-27 10:35:00
6:55 AM,28.4,1.4,31,30.22,10.0,NW,8.1,-,N/A,,Clear,310,2012-03-27 10:55:00
7:15 AM,28.4,1.4,31,30.24,10.0,NW,11.5,17.3,N/A,,Clear,310,2012-03-27 11:15:00
7:35 AM,30.2,3.2,32,30.25,10.0,NW,12.7,-,N/A,,Clear,310,2012-03-27 11:35:00
7:55 AM,30.2,1.4,29,30.25,10.0,NNW,13.8,17.3,N/A,,Clear,330,2012-03-27 11:55:00
8:15 AM,32.0,1.4,27,30.26,10.0,NW,17.3,-,N/A,,Clear,320,2012-03-27 12:15:00
8:35 AM,33.8,1.4,25,30.26,10.0,NW,15.0,24.2,N/A,,Clear,310,2012-03-27 12:35:00
8:55 AM,33.8,1.4,25,30.27,10.0,NW,19.6,24.2,N/A,,Clear,320,2012-03-27 12:55:00
9:15 AM,33.8,1.4,25,30.26,10.0,NW,21.9,27.6,N/A,,Clear,320,2012-03-27 13:15:00
9:35 AM,35.6,1.4,24,30.27,10.0,NNW,18.4,24.2,N/A,,Clear,330,2012-03-27 13:35:00
9:55 AM,35.6,1.4,24,30.27,10.0,NW,20.7,25.3,N/A,,Clear,320,2012-03-27 13:55:00
10:15 AM,37.4,1.4,22,30.27,10.0,NW,17.3,23.0,N/A,,Clear,310,2012-03-27 14:15:00
10:35 AM,37.4,3.2,24,30.28,10.0,NW,17.3,23.0,N/A,,Clear,310,2012-03-27 14:35:00
10:55 AM,39.2,1.4,21,30.28,10.0,NNW,17.3,25.3,N/A,,Clear,330,2012-03-27 14:55:00
11:15 AM,39.2,1.4,21,30.28,10.0,NNW,16.1,25.3,N/A,,Clear,330,2012-03-27 15:15:00
11:35 AM,41.0,3.2,21,30.28,10.0,NW,15.0,29.9,N/A,,Clear,320,2012-03-27 15:35:00
11:55 AM,42.8,3.2,19,30.28,10.0,NNW,18.4,26.5,N/A,,Clear,340,2012-03-27 15:55:00
12:15 PM,44.6,3.2,18,30.27,10.0,NW,20.7,27.6,N/A,,Clear,320,2012-03-27 16:15:00
12:35 PM,44.6,3.2,18,30.27,10.0,NW,16.1,26.5,N/A,,Clear,320,2012-03-27 16:35:00
12:55 PM,44.6,3.2,18,30.26,10.0,NNW,13.8,24.2,N/A,,Clear,340,2012-03-27 16:55:00
1:15 PM,46.4,3.2,17,30.24,10.0,NNW,18.4,23.0,N/A,,Clear,330,2012-03-27 17:15:00
1:35 PM,46.4,3.2,17,30.24,10.0,NNW,17.3,20.7,N/A,,Clear,330,2012-03-27 17:35:00
1:55 PM,46.4,3.2,17,30.24,10.0,NNW,13.8,21.9,N/A,,Clear,330,2012-03-27 17:55:00
2:15 PM,48.2,3.2,16,30.24,10.0,NNW,15.0,23.0,N/A,,Clear,330,2012-03-27 18:15:00
2:35 PM,48.2,3.2,16,30.23,10.0,NW,19.6,24.2,N/A,,Clear,320,2012-03-27 18:35:00
2:55 PM,48.2,3.2,16,30.22,10.0,WNW,16.1,20.7,N/A,,Clear,300,2012-03-27 18:55:00
3:15 PM,50.0,3.2,15,30.22,10.0,NNW,18.4,23.0,N/A,,Clear,330,2012-03-27 19:15:00
3:35 PM,51.8,3.2,14,30.21,10.0,WNW,13.8,18.4,N/A,,Clear,300,2012-03-27 19:35:00
3:55 PM,51.8,3.2,14,30.22,10.0,NW,9.2,-,N/A,,Clear,320,2012-03-27 19:55:00
4:15 PM,51.8,3.2,14,30.21,10.0,NW,11.5,18.4,N/A,,Clear,310,2012-03-27 20:15:00
4:35 PM,51.8,3.2,14,30.22,10.0,NNW,11.5,19.6,N/A,,Clear,330,2012-03-27 20:35:00
4:55 PM,51.8,3.2,14,30.21,10.0,NNW,10.4,-,N/A,,Clear,340,2012-03-27 20:55:00
5:15 PM,51.8,3.2,14,30.21,10.0,WNW,10.4,-,N/A,,Clear,290,2012-03-27 21:15:00
5:35 PM,51.8,3.2,14,30.22,10.0,NW,10.4,-,N/A,,Clear,320,2012-03-27 21:35:00
5:55 PM,51.8,1.4,13,30.22,10.0,NW,10.4,-,N/A,,Clear,320,2012-03-27 21:55:00
6:15 PM,51.8,1.4,13,30.22,10.0,NW,11.5,-,N/A,,Clear,310,2012-03-27 22:15:00
6:35 PM,51.8,1.4,13,30.22,10.0,WNW,6.9,-,N/A,,Clear,300,2012-03-27 22:35:00
6:55 PM,50.0,1.4,14,30.22,10.0,NW,9.2,-,N/A,,Clear,320,2012-03-27 22:55:00
7:15 PM,48.2,1.4,15,30.22,10.0,WNW,3.5,-,N/A,,Clear,300,2012-03-27 23:15:00
7:35 PM,46.4,1.4,16,30.22,10.0,West,3.5,-,N/A,,Clear,260,2012-03-27 23:35:00
7:55 PM,46.4,3.2,17,30.23,10.0,WSW,3.5,-,N/A,,Clear,250,2012-03-27 23:55:00
8:15 PM,44.6,3.2,18,30.22,10.0,Calm,Calm,-,N/A,,Clear,0,2012-03-28 00:15:00
8:35 PM,46.4,5.0,18,30.22,10.0,SW,4.6,-,N/A,,Clear,230,2012-03-28 00:35:00
8:55 PM,44.6,5.0,20,30.22,10.0,SW,4.6,-,N/A,,Clear,230,2012-03-28 00:55:00
9:15 PM,42.8,8.6,25,30.22,10.0,South,5.8,-,N/A,,Clear,190,2012-03-28 01:15:00
9:35 PM,42.8,6.8,23,30.22,10.0,SSW,6.9,-,N/A,,Clear,200,2012-03-28 01:35:00
9:55 PM,42.8,6.8,23,30.23,10.0,SSW,4.6,-,N/A,,Clear,200,2012-03-28 01:55:00
10:15 PM,41.0,8.6,26,30.23,10.0,SSW,6.9,-,N/A,,Clear,200,2012-03-28 02:15:00
10:35 PM,39.2,14.0,36,30.22,10.0,South,5.8,-,N/A,,Clear,180,2012-03-28 02:35:00
10:55 PM,39.2,15.8,39,30.21,10.0,SSW,6.9,-,N/A,,Clear,200,2012-03-28 02:55:00
11:15 PM,39.2,17.6,42,30.20,10.0,South,5.8,-,N/A,,Clear,190,2012-03-28 03:15:00
11:35 PM,39.2,17.6,42,30.18,10.0,South,6.9,-,N/A,,Clear,190,2012-03-28 03:35:00
11:55 PM,37.4,21.2,52,30.17,10.0,SSW,5.8,-,N/A,,Clear,210,2012-03-28 03:55:00